Location: Poigny-la-Forêt
(48.6876°N, 1.7701°E)
Time: 16:33:39
(UTC+02:00)

Envisat - Pass Details

Date: 01 April 2019
Orbit: 764 x 766 km, 98.2° (Epoch: 24 April)

Event Time Altitude Azimuth Distance (km) Brightness Sun altitude
Rises 21:07:13 0° 190° (S) 3,220 6.2 -7.9°
Reaches altitude 10° 21:09:43 10° 200° (SSW) 2,299 5.5 -8.3°
Maximum altitude 21:14:18 34° 265° (W) 1,251 4.9 -9.0°
Drops below altitude 10° 21:18:55 10° 329° (NNW) 2,314 6.3 -9.8°
Sets 21:21:27 0° 339° (NNW) 3,245 6.9 -10.2°
